(224641) = 2005 YN175 = 2004 TK262 = 1999 TD253

Discovered at Kitt Peak on 2005-12-22 by Spacewatch.

Orbit

Orbit type: Main Belt

Note: WebGL enabled browser required.

epoch2023-09-13.0
epoch JD2460200.5
perihelion date2022-12-24.76851
perihelion JD2459938.26851
argument of perihelion (°)218.94728
ascending node (°)74.17959
inclination (°)3.17102
eccentricity0.0273218
perihelion distance (AU)2.7873962
Tisserand w.r.t. Jupiter3.3
ΔV w.r.t. Earth (km/sec)10.4
semimajor axis (AU)2.8656920
mean anomaly (°)53.27757
mean daily motion (°/day)0.20317000
aphelion distance (AU)2.944
period (years)4.85
P-vector [x]0.39184246
P-vector [y]-0.82967847
P-vector [z]-0.39760926
Q-vector [x]0.91849170
Q-vector [y]0.37776865
Q-vector [z]0.11689247
absolute magnitude15.94
phase slope0.15
uncertainty0
referenceMPO 778571
observations used517
oppositions20
arc length (days)23052
first opposition used1960
last opposition used2023
residual rms (arc-secs)0.73
perturbers coarse indicatorM-v
perturbers precise indicator003Ek
first observation date used1960-09-27.0
last observation date used2023-11-08.0
computer nameMPCLINUX
JD of orbit computation2456966.851804
perihelion JD uncertainty (days)3.8484E-04
argument of perihelion uncertainty (°)1.0663E-04
ascending node uncertainty (°)7.3024E-05
inclination uncertainty (°)4.1610E-06
eccentricity uncertainty 3.3179E-08
perihelion distance uncertainty (AU)9.7228E-08
Minimum Orbit Intersection Distances (in AU)
for orbit epoch: 2460200.5, reference: E2023-VC7
Mercury2.33004
Venus2.05942
Earth1.77144
Mars1.24397
Jupiter2.08677
Saturn6.11682
Uranus15.534
Neptune26.9588

Observations

530 total observations over interval: 1960 09 27.34237 – 2023 11 08.270587
These data are available for download (format description).

Date (UT) J2000 RA J2000 Dec Magn Location Ref
1960 09 27.34237 23 56 01.85 -05 35 34.5 19.9 V 675 – Palomar Mountain MPS 284380
1960 09 28.31736 23 55 16.10 -05 39 50.6 21.1   675 – Palomar Mountain MPS 284380
1960 09 28.33750 23 55 15.16 -05 39 56.0 19.7   675 – Palomar Mountain MPS 284380
1960 10 24.23750 23 39 18.98 -06 51 22.8 20.1 V 675 – Palomar Mountain MPS 284380
1992 03 07.23125 11 13 55.18 +10 10 26.7   809 – European Southern Observatory, La Silla MPS 175553
1999 10 09.25930 00 58 46.68 +01 42 16.6 19.6   704 – Lincoln Laboratory ETS, New Mexico MPS 15451
1999 10 09.27471 00 58 45.91 +01 42 13.2 19.6   704 – Lincoln Laboratory ETS, New Mexico MPS 15451
1999 10 09.30573 00 58 44.33 +01 42 04.6 19.7   704 – Lincoln Laboratory ETS, New Mexico MPS 15451
1999 10 13.24532 00 55 32.79 +01 25 01.1 19.4 V 691 – Steward Observatory, Kitt Peak-Spacewatch MPS 15451
1999 10 13.26611 00 55 31.74 +01 24 55.8 19.5 V 691 – Steward Observatory, Kitt Peak-Spacewatch MPS 15451
1999 10 13.28732 00 55 30.69 +01 24 50.6 19.6 V 691 – Steward Observatory, Kitt Peak-Spacewatch MPS 15451
2001 01 26.19761 06 41 57.12 +25 38 57.7 21.3 V 691 – Steward Observatory, Kitt Peak-Spacewatch MPS 159140
2001 01 26.22078 06 41 56.06 +25 38 59.1 21.1 V 691 – Steward Observatory, Kitt Peak-Spacewatch MPS 159140
2001 01 26.24407 06 41 54.96 +25 39 00.7 21.2 V 691 – Steward Observatory, Kitt Peak-Spacewatch MPS 159140
2002 04 14.22841 12 39 59.65 +00 13 48.7 20.2   644 – Palomar Mountain/NEAT MPS 159140
2002 04 14.25043 12 39 58.64 +00 13 54.1 20.6   644 – Palomar Mountain/NEAT MPS 159140
2002 04 14.28187 12 39 57.12 +00 14 01.3 20.2   644 – Palomar Mountain/NEAT MPS 159140
2004 10 09.27480 02 01 14.39 +08 30 36.7 20.0 V 691 – Steward Observatory, Kitt Peak-Spacewatch MPS 118641
2004 10 09.30208 02 01 13.08 +08 30 30.2 19.8 V 691 – Steward Observatory, Kitt Peak-Spacewatch MPS 118641
2004 10 09.32910 02 01 11.79 +08 30 23.9 20.0 V 691 – Steward Observatory, Kitt Peak-Spacewatch MPS 118641
2004 10 13.25865 01 58 05.10 +08 15 02.0 19.9 V 691 – Steward Observatory, Kitt Peak-Spacewatch MPS 118641
2004 10 13.28802 01 58 03.62 +08 14 55.1 20.0 V 691 – Steward Observatory, Kitt Peak-Spacewatch MPS 118641
2004 10 13.31516 01 58 02.26 +08 14 48.7 20.0 V 691 – Steward Observatory, Kitt Peak-Spacewatch MPS 118641
2005 12 05.43613 08 24 46.33 +21 43 18.5 20.8 V G96 – Mt. Lemmon Survey MPS 157943
2005 12 05.44496 08 24 46.26 +21 43 19.5 20.5 V G96 – Mt. Lemmon Survey MPS 157943
2005 12 05.45378 08 24 46.11 +21 43 20.5 20.8 V G96 – Mt. Lemmon Survey MPS 157943
2005 12 05.46259 08 24 46.08 +21 43 21.4 20.6 V G96 – Mt. Lemmon Survey MPS 157943
2005 12 22.38718 08 18 08.73 +22 28 50.4 20.5 V 691 – Steward Observatory, Kitt Peak-Spacewatch MPS 157943
2005 12 22.40457 08 18 08.05 +22 28 54.0 20.4 V 691 – Steward Observatory, Kitt Peak-Spacewatch MPS 157943
2005 12 22.42194 08 18 07.41 +22 28 57.3 20.6 V 691 – Steward Observatory, Kitt Peak-Spacewatch MPS 157943
2005 12 30.34261 08 12 42.06 +22 56 07.2 20.3 V 691 – Steward Observatory, Kitt Peak-Spacewatch MPS 157943
2005 12 30.35999 08 12 41.25 +22 56 10.8 20.3 V 691 – Steward Observatory, Kitt Peak-Spacewatch MPS 157943
2005 12 30.37738 08 12 40.40 +22 56 14.7 20.4 V 691 – Steward Observatory, Kitt Peak-Spacewatch MPS 157943
2006 01 04.34027 08 08 40.42 +23 14 06.1 20.2 V 691 – Steward Observatory, Kitt Peak-Spacewatch MPS 157943
2006 01 04.35763 08 08 39.52 +23 14 09.8 20.5 V 691 – Steward Observatory, Kitt Peak-Spacewatch MPS 157943
2006 01 04.37506 08 08 38.62 +23 14 13.3 20.4 V 691 – Steward Observatory, Kitt Peak-Spacewatch MPS 157943
2006 02 07.18520 07 38 36.96 +24 53 03.2 20.0 V G96 – Mt. Lemmon Survey MPS 162870
2006 02 07.19016 07 38 36.78 +24 53 03.8 20.0 V G96 – Mt. Lemmon Survey MPS 162870
2006 02 07.19512 07 38 36.52 +24 53 04.2 20.8 V G96 – Mt. Lemmon Survey MPS 162870
2006 02 07.20007 07 38 36.31 +24 53 05.1 20.5 V G96 – Mt. Lemmon Survey MPS 162870
2007 03 13.38446 14 01 25.86 -08 24 26.9 20.4 V G96 – Mt. Lemmon Survey MPS 203136
2007 03 13.39212 14 01 25.68 -08 24 26.0 20.2 V G96 – Mt. Lemmon Survey MPS 203136
2007 03 13.39973 14 01 25.50 -08 24 25.1 20.1 V G96 – Mt. Lemmon Survey MPS 203136
2007 03 13.40743 14 01 25.35 -08 24 23.4 20.1 V G96 – Mt. Lemmon Survey MPS 203136
2007 04 11.22865 13 43 32.28 -06 43 32.0 20.1 V 691 – Steward Observatory, Kitt Peak-Spacewatch MPS 206208
2007 04 11.24623 13 43 31.35 -06 43 26.5 20.2 V 691 – Steward Observatory, Kitt Peak-Spacewatch MPS 206208
2007 04 11.26380 13 43 30.49 -06 43 22.1 20.2 V 691 – Steward Observatory, Kitt Peak-Spacewatch MPS 206208
2007 04 20.28909 13 36 06.48 -06 06 44.4 19.8 V G96 – Mt. Lemmon Survey MPS 208117
2007 04 20.29476 13 36 06.19 -06 06 43.0 19.8 V G96 – Mt. Lemmon Survey MPS 208117
2007 04 20.30028 13 36 05.90 -06 06 41.6 19.8 V G96 – Mt. Lemmon Survey MPS 208117
2007 04 20.30590 13 36 05.61 -06 06 40.2 19.9 V G96 – Mt. Lemmon Survey MPS 208117
2007 04 23.14834 13 33 47.10 -05 55 44.3   691 – Steward Observatory, Kitt Peak-Spacewatch MPS 208117
2007 04 23.16794 13 33 46.11 -05 55 39.9   691 – Steward Observatory, Kitt Peak-Spacewatch MPS 208117
2007 04 23.18704 13 33 45.18 -05 55 35.4   691 – Steward Observatory, Kitt Peak-Spacewatch MPS 208117
2007 05 06.14084 13 24 04.64 -05 13 30.0   691 – Steward Observatory, Kitt Peak-Spacewatch MPS 208983
2007 05 06.15916 13 24 03.90 -05 13 27.0   691 – Steward Observatory, Kitt Peak-Spacewatch MPS 208983
2007 05 06.17749 13 24 03.14 -05 13 24.1   691 – Steward Observatory, Kitt Peak-Spacewatch MPS 208983
2009 09 22.35688 03 07 58.54 +14 39 34.5 20.3 V G96 – Mt. Lemmon Survey MPS 295872
2009 09 22.36801 03 07 58.44 +14 39 34.5 20.5 V G96 – Mt. Lemmon Survey MPS 295872
2009 09 22.37931 03 07 58.29 +14 39 33.9 20.2 V G96 – Mt. Lemmon Survey MPS 295872
2009 09 22.39039 03 07 58.15 +14 39 33.3 20.5 V G96 – Mt. Lemmon Survey MPS 295872
2009 10 18.07032 02 55 32.81 +13 50 08.4 19.9 V J75 – OAM Observatory, La Sagra MPS 299416
2009 10 18.08372 02 55 32.08 +13 50 05.6 20.2 V J75 – OAM Observatory, La Sagra MPS 299416
2009 10 18.09704 02 55 31.46 +13 50 02.9 19.5 V J75 – OAM Observatory, La Sagra MPS 299416
2009 10 23.25932 02 51 30.34 +13 34 56.5 20.6 V 691 – Steward Observatory, Kitt Peak-Spacewatch MPS 300717
2009 10 23.27650 02 51 29.45 +13 34 53.5 20.8 V 691 – Steward Observatory, Kitt Peak-Spacewatch MPS 300717
2009 10 23.29366 02 51 28.60 +13 34 50.3 20.3 V 691 – Steward Observatory, Kitt Peak-Spacewatch MPS 300717
2009 11 09.31258 02 36 49.89 +12 41 25.6 19.4 V G96 – Mt. Lemmon Survey MPS 303158
2009 11 09.31966 02 36 49.50 +12 41 24.2 19.4 V G96 – Mt. Lemmon Survey MPS 303158
2009 11 09.32684 02 36 49.10 +12 41 23.1 19.3 V G96 – Mt. Lemmon Survey MPS 303158
2009 11 09.33385 02 36 48.74 +12 41 21.6 19.9 V G96 – Mt. Lemmon Survey MPS 303158
2009 11 09.37229 02 36 46.69 +12 41 14.7 19.2 V G96 – Mt. Lemmon Survey MPS 303158
2009 11 09.37879 02 36 46.33 +12 41 13.4 19.7 V G96 – Mt. Lemmon Survey MPS 303158
2009 11 09.38535 02 36 45.97 +12 41 12.0 19.3 V G96 – Mt. Lemmon Survey MPS 303158
2009 11 09.39310 02 36 45.61 +12 41 10.9 19.4 V G96 – Mt. Lemmon Survey MPS 303158
2009 11 10.22549 02 36 02.83 +12 38 39.4 19.8 V 291 – LPL/Spacewatch II MPS 303158
2009 11 10.22931 02 36 02.63 +12 38 38.6 19.8 V 291 – LPL/Spacewatch II MPS 303158
2009 11 10.23317 02 36 02.43 +12 38 38.0 19.8 V 291 – LPL/Spacewatch II MPS 303158
2009 11 18.27883 02 29 24.36 +12 15 55.4 20.0 V G96 – Mt. Lemmon Survey MPS 304721
2009 11 18.28745 02 29 23.92 +12 15 53.8 19.6 V G96 – Mt. Lemmon Survey MPS 304721
2009 11 18.29591 02 29 23.53 +12 15 52.5 19.5 V G96 – Mt. Lemmon Survey MPS 304721
2009 11 18.30432 02 29 23.10 +12 15 51.0 19.9 V G96 – Mt. Lemmon Survey MPS 304721
2009 11 23.16588 02 25 46.12 +12 04 13.9 20.1 V G96 – Mt. Lemmon Survey MPS 306582
2009 11 23.17218 02 25 45.84 +12 04 13.1 20.1 V G96 – Mt. Lemmon Survey MPS 306582
2009 11 23.17865 02 25 45.58 +12 04 12.1 20.3 V G96 – Mt. Lemmon Survey MPS 306582
2009 11 23.18506 02 25 45.30 +12 04 11.5 20.2 V G96 – Mt. Lemmon Survey MPS 306582
2009 12 19.12839 02 14 27.45 +11 43 03.5 20.6 V G96 – Mt. Lemmon Survey MPS 309200
2009 12 19.13471 02 14 27.38 +11 43 03.9 20.3 V G96 – Mt. Lemmon Survey MPS 309200
